INTELSAT 33E DEB, 62005

Orbit data source: Space-Track

INTELSAT 33E DEB, 62005 is space debris in GEO originally from a launch on Wed, 24 Aug 2016 UTC launched from the French Guiana (FRGUI). Debris objects in space refer to the collection of defunct objects orbiting the Earth. Examples of debris include non-operational satellites, rocket bodies, and fragments generated from explosions, collisions, or faulty payload assembly.

Not visible in the next 10 days
Identifier
62005, 2016-053X
Orbit
GEO
Country
Flag of UnknownUnknown / ITSO
Related business
Manufacturer
Boeing/ES
Mission
Spacecraft
Bus & Motor
Unknown
Mass
Unknown
Launch date (UTC)
2016-08-24 (9 years ago)
Launch vehicle
Unknown
Launch site
French Guiana (FRGUI)
Object type
Payload
Rocket body
Debris
Shape & HBR
Unknown shape, 1.1 m
Radar Cross Section
RCS unknown

Expand to show TLE details & history
Last TLE update: 2 days ago

TLE from 2 days ago
0 INTELSAT 33E DEB
1 62005U 16053X   25340.14243408 -.00000061  00000-0  00000-0 0  9996
2 62005   1.2678 104.1408 0294652 230.3259 126.0930  1.04571420  4299
Epoch: 2025-12-06T03:25Z
TLE epoch observation values (Epoch: 2025-12-06T03:25:06.304Z)
Latitude
-0°
Longitude
-23.24811°
Altitude
35,354.272 km
Speed
3.063 km/s
True Right ascension
06h 52m 48s
True Declination
0° 00' 00"
Sunlit
Object was in daylight at epoch
Visualization orbit readout
Latitude
Unknown
Longitude
Unknown
Altitude
Unknown
Speed
Unknown
Apparent Right ascension
Unknown
Apparent Declination
Unknown
Sunlit
N/A
Visualization observer readout
Local Sidereal Time
18:44:52
Azimuth
Unknown
Elevation
Unknown
Doppler factor
Unknown
Orbital elements
Apogee altitude
35,831.974 km
Perigee altitude
33,415.711 km
Semi-major axis
41,001.979 km
Eccentricity
0.02947
Inclination
1.2678°
RAAN
104.1408°
Arg. of periapsis
230.3259°
True anomaly
128.76244°
Mean anomaly
126.093°
Eccentric anomaly
127.43356°
Mean motion
0.26142 °/min
Orbital period
1,377.1 mins
BSTAR
0
Loading maneuver chart data...
Computing Atmospheric mass density...
Loading historical data...
Loading historical data...
Loading historical data...
Loading historical data...
Loading historical data...
Loading historical data...
Loading historical data...

Documentation

Showing up to 5 results
|